GFSNIL_prec_cthk_105.txt.gz
RH
53 56 55 63 77 86 66 71 59 53 58 57 60 56 47 43 41 43 38 39 37 48
45 52 62 68 82 88 68 64 65 54 55 56 56 54 53 42 42 51 39 39 35 38
46 49 55 63 65 74 89 64 96 58 56 56 64 62 56 52 40 35 36 42 45 36
47 49 49 49 53 65 67 73 75 72 74 70 65 67 66 53 66 47 44 41 40 38
47 48 51 50 55 66 67 74 79 76 82 78 76 75 73 66 64 55 52 52 53 51
49 50 51 53 56 55 65 68 76 78 81 88 82 77 81 80 65 60 54 55 61 61
74 57 57 61 55 57 56 65 68 72 75 73 72 74 74 80 78 75 67 62 67 67
86 91 69 63 68 60 52 51 57 66 63 61 62 58 57 68 84 81 75 69 66 63
91 93 85 76 69 69 63 53 50 50 57 58 60 53 56 59 65 65 71 76 76 63
92 89 83 89 95 85 75 63 58 56 57 58 57 55 52 51 52 57 58 61 64 67
91 93 86 87 92 95 89 87 73 68 66 64 57 53 52 53 54 56 58 61 66 66
70 76 84 90 93 95 92 92 92 85 78 70 64 59 58 60 60 59 56 58 62 71
71 70 71 79 94 90 93 94 92 85 82 79 73 69 72 75 82 77 76 69 66 68
77 73 66 69 78 81 82 85 87 80 73 72 65 66 78 80 89 91 91 87 76 75

GFSNIL_prec_cthk_108.txt.gz
RH
65 60 58 66 62 77 72 68 67 57 54 53 59 47 44 37 40 40 34 32 40 36
46 50 54 60 61 65 90 77 79 52 52 54 54 51 49 40 45 41 64 33 31 34
34 40 47 56 65 73 80 85 91 61 49 47 60 56 48 47 44 35 30 33 40 38
35 35 36 45 52 53 68 72 68 67 64 62 59 67 58 57 63 62 38 36 43 42
39 39 38 37 44 45 54 59 70 73 69 69 64 65 67 67 63 61 47 46 44 45
50 47 42 46 41 45 51 57 58 69 75 78 82 81 69 70 75 68 60 51 52 59
83 71 53 50 52 50 49 51 59 69 75 77 79 79 74 68 71 72 71 67 57 59
88 86 78 67 57 54 58 57 50 55 62 68 67 60 56 55 57 73 80 73 75 68
85 87 86 88 92 69 65 66 58 50 50 59 60 59 59 56 53 68 73 65 73 84
83 88 87 88 90 88 76 80 75 70 60 50 51 56 58 58 53 53 54 57 60 68
80 80 85 86 87 91 90 91 92 85 73 66 64 61 61 59 59 54 55 58 64 61
75 76 82 88 88 85 86 91 92 90 87 83 79 76 72 66 63 57 54 61 62 62
72 63 64 70 78 83 85 93 97 95 89 86 84 79 73 68 66 68 73 76 75 73
80 66 72 69 65 70 81 87 91 90 91 86 79 79 76 67 66 78 80 79 83 87

GFSNIL_prec_cthk_111.txt.gz
RH
67 77 61 63 65 69 73 65 60 58 58 51 48 42 36 37 42 38 32 34 37 44
57 62 51 52 54 58 67 72 64 56 57 54 52 53 48 36 39 41 42 37 29 37
46 53 48 51 52 67 68 72 70 64 50 56 51 47 45 41 40 35 36 34 34 35
38 40 42 43 48 57 56 73 67 72 70 51 53 59 58 55 56 59 45 34 35 40
39 37 36 38 42 44 47 62 69 76 76 71 69 63 65 66 61 59 61 48 45 42
39 34 33 37 39 42 49 54 63 69 74 72 73 72 70 68 68 74 66 58 54 52
59 68 64 54 49 40 41 44 53 61 63 71 74 75 79 73 64 70 72 75 65 58
84 90 89 87 83 63 49 46 49 50 58 66 73 77 70 59 56 57 65 76 77 72
93 92 93 94 95 85 73 68 55 53 52 53 61 66 68 63 59 53 57 63 67 68
88 88 90 92 95 96 87 86 92 74 62 55 53 55 59 60 61 60 53 51 54 62
86 87 86 86 89 95 94 94 95 91 88 85 75 71 63 60 57 56 58 54 54 57
83 80 79 76 81 92 93 92 91 89 88 87 86 83 85 77 71 68 64 62 60 62
84 77 73 67 70 78 86 85 84 87 86 87 86 88 83 79 77 76 73 70 70 71
83 78 71 66 67 64 65 70 77 82 88 91 86 83 79 78 81 82 79 76 75 75

GFSNIL_prec_cthk_114.txt.gz
RH
69 69 69 71 72 69 77 63 60 57 55 51 40 42 35 32 39 38 41 39 45 47
62 69 69 57 55 64 70 70 66 62 59 52 50 46 44 38 37 42 42 39 33 38
45 53 54 47 50 52 65 71 75 69 59 54 51 50 50 48 43 38 39 48 48 35
34 38 42 40 41 47 63 72 73 77 57 53 50 55 55 50 50 52 45 34 29 34
29 31 30 32 32 39 44 54 70 71 74 70 63 64 68 66 65 64 62 56 47 42
30 29 29 30 28 28 35 42 57 68 73 73 73 75 73 72 75 67 73 75 59 53
44 36 34 31 35 35 33 33 42 58 65 73 76 79 84 85 80 75 77 83 76 70
69 56 54 68 78 81 73 46 38 42 51 70 69 76 81 81 80 68 70 72 80 81
87 81 79 88 92 90 94 88 68 57 51 50 60 70 81 80 72 67 61 61 66 70
89 91 90 90 94 91 93 98 91 82 76 70 56 53 57 62 67 64 65 62 64 63
90 89 88 91 88 89 91 95 97 94 88 85 87 73 63 60 58 60 61 60 58 56
82 85 89 91 88 83 85 91 97 95 93 94 95 90 87 81 81 81 76 66 62 60
91 93 94 92 80 70 78 89 93 98 97 96 96 92 88 87 89 90 85 80 76 74
94 93 93 87 77 71 67 69 72 77 78 79 84 89 90 89 89 86 81 83 85 82

GFSNIL_prec_cthk_117.txt.gz
RH
67 70 68 72 74 73 72 72 64 53 57 59 48 41 44 39 38 41 34 35 38 41
63 64 66 64 62 67 70 74 69 63 60 57 54 46 41 35 32 37 39 36 34 35
50 57 64 61 52 55 60 66 72 74 65 60 55 50 51 49 41 38 41 43 43 41
38 42 51 51 47 48 52 66 72 75 71 60 53 52 50 51 50 47 44 41 39 38
31 34 38 43 45 40 45 56 67 75 78 62 56 54 62 61 60 60 64 60 53 41
55 38 32 35 36 39 38 43 47 63 75 76 76 73 70 71 74 74 66 69 67 60
64 52 39 31 33 34 35 37 44 50 66 73 73 73 77 79 80 82 79 81 80 77
71 53 47 38 34 36 42 44 39 41 46 61 67 74 73 80 86 87 81 75 76 80
83 76 73 66 50 55 71 83 82 61 47 50 55 65 71 77 83 84 80 73 63 65
83 88 83 79 68 90 89 93 91 90 78 65 57 53 56 69 77 80 81 84 72 69
83 85 88 90 89 90 93 93 95 96 90 88 87 85 75 59 57 57 60 65 69 66
88 87 88 93 90 92 96 96 94 95 97 96 92 90 87 82 80 80 74 72 82 83
89 91 92 91 92 95 95 88 89 92 97 99 97 95 92 95 92 91 87 84 88 86
98 94 94 97 97 97 90 75 77 86 95 95 90 91 86 90 89 90 91 89 88 88

GFSNIL_prec_cthk_123.txt.gz
RH
64 65 68 66 66 69 68 70 64 58 53 53 48 43 42 42 41 39 37 35 37 38
65 68 72 71 73 74 73 72 71 70 63 50 50 54 46 40 38 38 37 35 35 35
58 63 70 72 71 74 68 70 68 70 69 64 57 53 50 49 40 35 34 33 35 39
49 56 60 63 66 66 58 56 61 62 67 72 69 60 56 54 52 49 49 40 42 37
38 46 51 54 59 64 62 50 47 50 62 76 73 68 56 58 52 54 52 48 53 55
43 39 41 42 44 45 48 50 46 41 49 63 71 71 66 53 62 68 67 65 64 67
67 56 44 39 36 37 39 42 43 40 36 45 52 68 74 67 68 73 73 74 78 73
74 71 70 66 65 60 48 39 39 38 36 37 40 47 62 68 72 73 71 73 74 77
82 78 74 77 76 78 69 55 45 39 36 35 37 40 45 58 72 72 72 75 77 78
93 81 82 87 94 86 79 67 59 49 45 48 59 66 61 52 50 64 72 79 75 78
84 92 87 89 98 99 92 90 85 79 69 74 79 85 90 88 76 63 68 77 80 76
91 91 94 94 93 97 98 97 94 93 92 86 90 96 96 95 90 80 70 70 68 79
86 87 93 91 89 99 94 98 99 97 97 95 94 94 94 99 97 91 84 86 76 75
72 80 86 94 95 95 95 99 98 99 98 92 98 91 97 100 98 99 94 94 89 92